Regional Weather Roundup
Issued by NWS Newport/Morehead, NC

Current Version | Previous Version | Text Only | Print | Product List | Glossary On
Versions: 1 2 3 4 5 6 7 8 9 10 11 12 13 14 15 16 17 18 19 20 21 22 23 24 25 26 27 28 29 30 31 32 33 34 35 36 37 38 39 40 41 42 43 44 45 46 47 48 49 50
000 ASUS42 KMHX 010322 RWRMHX WEATHER ROUNDUP FOR EASTERN NORTH CAROLINA NATIONAL WEATHER SERVICE NEWPORT/MOREHEAD CITY NC 1100 PM EDT THU JUL 31 2014 NOTE: "FAIR" INDICATES FEW OR NO CLOUDS BELOW 12,000 FEET WITH NO SIGNIFICANT WEATHER AND/OR OBSTRUCTIONS TO VISIBILITY NCZ015>017-031-032-045>047-102-103-010400- NORTH COAST CITY SKY/WX TMP DP RH WIND PRES REMARKS EDENTON MOCLDY 75 65 70 SE6 30.16R ELIZABETH CITY CLOUDY 75 64 68 SE6 30.16S KITTY HAWK CLOUDY 76 65 69 E6 30.16R MANTEO NOT AVBL $$ NCZ045>047-081-094-103-104-010400- CENTRAL COAST CITY SKY/WX TMP DP RH WIND PRES REMARKS FRISCO CLOUDY 79 66 64 E12 30.15S SWANQUARTER N/A 72 N/A N/A E2 30.12S $$ NCZ095-097-098-100-101-010400- SOUTHERN COAST CITY SKY/WX TMP DP RH WIND PRES REMARKS BEAUFORT MOCLDY 80 68 66 E9G18 30.12F CEDAR ISLAND N/A 81 N/A N/A E15 30.18S JACKSONVILLE MOCLDY 76 69 79 E9 30.12R NEWPORT NOT AVBL PINEY ISLAND MOCLDY 80 71 74 E10 30.13S WILMINGTON CLOUDY 80 69 69 E9 30.11R $$ NCZ011>013-027>030-043-044-078>080-089-090>093-098-010400- COASTAL PLAIN CITY SKY/WX TMP DP RH WIND PRES REMARKS AHOSKIE CLOUDY 72 66 82 SE3 30.16S CLINTON CLOUDY 75 69 81 CALM 30.14R ELIZABETHTOWN CLOUDY 74 68 81 CALM 30.13R GOLDSBORO NOT AVBL GREENVILLE MOCLDY 73 68 83 CALM 30.16S HAVELOCK MOCLDY 75 68 78 E6 30.14S KENANSVILLE CLOUDY 73 67 81 CALM 30.14S KINSTON MOCLDY 74 66 75 CALM 30.15R NEW BERN MOCLDY 77 67 71 E6 30.14F RICHLANDS MOCLDY 73 66 78 E7 30.13S ROANOKE RAPIDS NOT AVBL ROCKY MOUNT CLOUDY 72 69 90 CALM 30.15R WASHINGTON MOCLDY 72 65 80 CALM 30.14F WHITEVILLE RAIN 75 70 85 NE3 30.11R $$ AMZ130-135-150-152-154-156-158-170-250-252-270-ANZ085-086-088-633-658-670-010400- MARINE OBSERVATIONS STATION/POSITION TIME TEMP WIND PRES WAVE SWELL AIR SEA DIR/SP/G HT/PER HT/PER (UTC) (F) (DEG/KT/KT) (MB) (FT/S) (FT/S) CHESAPEAKE LIGHT NOT AVBL BUOY 44014 0300 77 78 110/ 12/ 14 1021.3 2/ 7 2/ 7 DUCK 0300 77 77 130/ 12/ 13 1020.7 2E DUCK 0300 N/A 3/ 7 OREGON INLET 0300 77 79 80/ 6/ 10 1021.2 BUOY 44095 0300 78 N/A 3/ 7 20E OREGON INLET NOT AVBL HATTERAS CG 0300 79 80 100/ 9/ 13 1021.4 DIAMOND BUOY 0300 VRB 14/ 17 1020.6 4/ 6 2/ 8 CAPE LOOKOUT 0300 80 90/ 16/ 18 1020.0 BEAUFORT LAB 0300 80 82 100/ 10/ 13 1019.6 30 SE NEW RIVER 0300 81 81 90/ 17/ 21 1019.5 4/ 5 2/ 8 5 SE WRIGHTSVILL 0300 78 81 100/ 16/ 17 N/A BUOY 41002 0235 81 81 170/ 8/ 10 1020.1 4/ 6 3/ 6 BUOY 41004 0300 83 83 130/ 12/ 12 1016.4 4/ 6 3/ 6 $$

USA.gov is the U.S. government's official web portal to all federal, state and local government web resources and services.